Flag for Australia

Past Weather in Adelaide, South Australia, Australia — Yesterday and Last 2 Weeks

Now
57 °F

Cool.


Feels Like: 55 °F
Forecast: 62 / 51 °F
Wind: 12 mph from North

Location: Adelaide Airport
Current Time: Sep 29, 2020 at 3:18:22 pm
Latest Report: Sep 29, 2020 at 2:30 pm
Visibility: N/A
Pressure29.98 "Hg
Humidity: 94%
Dew Point: 56 °F
Location of AdelaideLocation

Past Weather in Adelaide — Graph

°F

Adelaide Temperature Yesterday

Maximum temperature yesterday: 71 °F (at 3:00 pm)
Minimum temperature yesterday: 54 °F (at 12:30 am)
Average temperature yesterday: 62 °F

High & Low Weather Summary for the Past Weeks

 TemperatureHumidityPressure
High83 °F (Sep 18, 11:30 am)96% (Sep 15, 3:00 am)30.45 "Hg (Sep 15, 3:00 am)
Low40 °F (Sep 27, 4:30 am)18% (Sep 16, 3:00 pm)29.47 "Hg (Sep 20, 4:30 pm)
Average59 °F62%30.02 "Hg
* Reported Sep 14 1:30 pm — Sep 29 1:30 pm, Adelaide. Weather by CustomWeather, © 2020

Note: Actual official high and low records may vary slightly from our data, if they occured in-between our weather recording intervals... More about our weather records

Adelaide Weather History for the Previous 24 Hours

Scroll right to see more
 ConditionsComfort  
Time TempWeatherWind HumidityBarometerVisibility
1:30 pm
Tue, Sep 29
62 °FCool.14 mph65%29.98 "HgN/A
12:30 pm63 °FMild.13 mph61%30.01 "HgN/A
12:00 pm65 °FLight rain. Overcast.18 mph46%30.01 "Hg9 mi
11:30 am67 °FMild.10 mph38%30.02 "HgN/A
10:30 am67 °FMild.15 mph34%30.01 "HgN/A
9:30 am68 °FMild.21 mph27%29.98 "HgN/A
9:00 am67 °FOvercast.18 mph29%30.00 "Hg25 mi
8:30 am66 °FMild.20 mph30%30.01 "HgN/A
7:30 am65 °FMild.15 mph30%30.02 "HgN/A
6:30 am63 °FMild.12 mph33%30.00 "HgN/A
6:00 am63 °FOvercast.14 mph33%29.99 "Hg25 mi
5:30 am63 °FMild.15 mph33%30.00 "HgN/A
4:30 am63 °FMild.13 mph34%30.00 "HgN/A
3:30 am63 °FMild.12 mph34%30.02 "HgN/A
3:00 am62 °FOvercast.14 mph36%30.03 "Hg25 mi
2:30 am62 °FRefreshingly cool.12 mph36%30.04 "HgN/A
1:30 am63 °FMild.13 mph33%30.04 "HgN/A
12:30 am61 °FRefreshingly cool.12 mph39%30.06 "HgN/A
12:00 am60 °FOvercast.10 mph41%30.07 "Hg25 mi
11:30 pm
Mon, Sep 28
62 °FRefreshingly cool.12 mph35%30.09 "HgN/A
9:30 pm61 °FRefreshingly cool.9 mph39%30.11 "HgN/A
9:00 pm60 °FPassing clouds.9 mph39%30.12 "Hg25 mi
8:30 pm59 °FRefreshingly cool.8 mph44%30.12 "HgN/A
7:30 pm62 °FRefreshingly cool.7 mph39%30.11 "HgN/A
6:30 pm67 °FMild.9 mph27%30.09 "HgN/A
6:00 pm68 °FPassing clouds.13 mph27%30.09 "Hg25 mi
4:30 pm70 °FMild.16 mph26%30.10 "HgN/A
3:30 pm71 °FMild.16 mph27%30.11 "HgN/A
3:00 pm71 °FScattered clouds.15 mph25%30.11 "Hg25 mi
Weather by CustomWeather, © 2020

See weather overview